Location: Hopville
(44.8032°N, 123.1329°W)
Time: 04:39:05
(UTC+00:00)

Cosmos 1340 - Pass Details

Date: 24 January 2021
Orbit: 500 x 504 km, 81.2° (Epoch: 26 February)

Event Time Altitude Azimuth Distance (km) Brightness Sun altitude
Exits shadow 13:29:33 34° 14° (NNE) 845 3.8 -23.0°
Maximum altitude 13:30:56 58° 77° (ENE) 590 3.2 -22.7°
Drops below altitude 10° 13:34:38 10° 158° (SSE) 1,705 5.6 -22.1°
Sets 13:36:46 0° 162° (SSE) 2,585 6.6 -21.7°
